Content
SEND FEEDBACK

Daily
Averages
Monthly
Summary
Indonesia

PAKANBARU, INDONESIA


Home > Asia > Indonesia
Elevation: 102 feet     Latitude: 00 28N     Longitude: 101 27E

WEATHER
 
SELECT A DAY
Number of Records: 57,741;   Date Range: 6/19/04 - 10/30/14
 
SHARE

PRINT THIS DATA

[ ← Previous Day ]
WEATHER ALMANAC - APRIL 28, 2014
[ Next Day → ]
[ °C ]   °F
Weather ElementAverageHighLow
Temperature84.5 °F93.2 °F (3:30 pm)75 °F (4:00 am)
Dewpoint74.6 °F77 °F (6:00 pm)71.6 °F (3:30 pm)
Humidity72.8 %95 % (4:00 am)41 % (4:00 pm)
Barometer29.78 in29.88 in (10:00 am)29.68 in (3:30 pm)
Wind Speed0.7 mph8.1 mph (2:00 pm)
Weather ElementAverage
Visibility5.5 mi
Wind DirectionNNE (23.6 °)

Weather ElementTotal
Precipitation---
Cooling Degree Days19.1 (Base 65)
Growing Degree Days34.1 (Base 50)
Averaged from 42 records on April 28, 2014
WEATHER CONDITIONS BREAKOUT
WIND DIRECTION BREAKOUT
WEATHER BY HOUR - APRIL 28, 2014
[ °C ]   °F
Local TimeTemperatureDewpointHumidityBarometerVisibilityWind DirectionWind SpeedGust SpeedPrecipitationEventsConditions
4:00 AM75.0 °F74.0 °F95 %29.80 in4.0 miCalmPartly Cloudy
5:00 AM75.2 °F73.4 °F94 %29.80 in3.1 miCalmHaze
5:30 AM75.2 °F73.4 °F94 %29.80 in3.1 miCalmHaze
6:00 AM75.2 °F73.4 °F94 %29.80 in3.7 miCalmScattered Clouds
7:00 AM75.2 °F73.4 °F94 %29.83 in4.3 miCalmScattered Clouds
7:00 AM75.0 °F74.0 °F95 %29.84 in4.0 miCalmPartly Cloudy
7:30 AM75.2 °F73.4 °F94 %29.83 in5.0 miCalmScattered Clouds
8:00 AM77.0 °F75.2 °F94 %29.83 in5.0 miCalmMostly Cloudy
8:30 AM77.0 °F75.2 °F94 %29.86 in5.0 miCalmMostly Cloudy
9:00 AM78.8 °F73.4 °F83 %29.86 in5.6 miCalmScattered Clouds
9:30 AM78.8 °F73.4 °F83 %29.86 in5.6 miCalmScattered Clouds
10:00 AM82.0 °F76.0 °F76 %29.88 in6.0 miCalmPartly Cloudy
10:00 AM82.4 °F75.2 °F79 %29.86 in6.2 miCalmScattered Clouds
10:30 AM84.2 °F75.2 °F74 %29.86 in6.2 miCalmScattered Clouds
11:00 AM84.2 °F75.2 °F74 %29.86 in6.2 miCalmPartly Cloudy
11:30 AM84.2 °F75.2 °F74 %29.83 in6.2 miCalmPartly Cloudy
12:00 PM87.8 °F73.4 °F62 %29.83 in6.2 miSW (230°)5.8 mphPartly Cloudy
1:00 PM90.0 °F75.0 °F53 %29.80 in6.0 miNNE (20°)5.8 mphScattered Clouds
1:00 PM89.6 °F75.2 °F62 %29.80 in6.2 miNNE (20°)5.8 mphPartly Cloudy
1:30 PM89.6 °F75.2 °F62 %29.77 in6.2 miNW (320°)5.8 mphPartly Cloudy
2:00 PM91.4 °F73.4 °F55 %29.74 in6.2 miWest (260°)8.1 mphScattered Clouds
2:30 PM91.4 °F73.4 °F55 %29.71 in6.2 miCalmScattered Clouds
3:30 PM93.2 °F71.6 °F49 %29.68 in6.2 miCalmScattered Clouds
4:00 PM93.0 °F72.0 °F41 %29.70 in6.0 miCalmPartly Cloudy
4:00 PM93.2 °F71.6 °F49 %29.68 in6.2 miCalmScattered Clouds
4:30 PM93.2 °F71.6 °F49 %29.68 in6.2 miCalmScattered Clouds
5:00 PM93.2 °F71.6 °F49 %29.68 in6.2 miCalmScattered Clouds
5:30 PM93.2 °F71.6 °F49 %29.71 in6.2 miCalmScattered Clouds
6:00 PM89.6 °F77.0 °F66 %29.71 in6.2 miCalmScattered Clouds
6:30 PM89.6 °F77.0 °F66 %29.71 in6.2 miCalmScattered Clouds
7:00 PM88.0 °F77.0 °F62 %29.74 in6.0 miCalmScattered Clouds
7:00 PM87.8 °F77.0 °F70 %29.74 in6.2 miCalmPartly Cloudy
7:30 PM87.8 °F77.0 °F70 %29.74 in6.2 miCalmPartly Cloudy
8:00 PM86.0 °F75.2 °F70 %29.74 in6.2 miCalmPartly Cloudy
8:30 PM86.0 °F75.2 °F70 %29.77 in6.2 miCalmPartly Cloudy
9:00 PM84.2 °F75.2 °F74 %29.77 in5.0 miCalmPartly Cloudy
9:30 PM84.2 °F75.2 °F74 %29.80 in5.0 miCalmPartly Cloudy
10:00 PM83.0 °F76.0 °F75 %29.81 in5.0 miCalmScattered Clouds
10:00 PM82.4 °F77.0 °F84 %29.80 in5.0 miCalmPartly Cloudy
10:30 PM82.4 °F77.0 °F84 %29.80 in5.0 miCalmPartly Cloudy
11:00 PM82.4 °F77.0 °F84 %29.80 in5.0 miCalmPartly Cloudy
11:30 PM82.4 °F77.0 °F84 %29.80 in5.0 miCalmPartly Cloudy
Hourly data recorded from WIBB, located miles away from Pakanbaru, Indonesia







STORIES FROM OUR PARTNERS